Total_Precipitation_Accumulation
0.01 0.01 0.02 0.02 0.03 0.03 0.04 0.05 0.07 0.08 0.09 0.09 0.09 0.10 0.11 0.14 0.17 0.21 0.25 0.29 0.33 0.33 0.34 0.36 0.36 0.36 0.35 0.33 0.31 0.29 0.29 0.35 0.33 0.13 0.09 0.15 0.25 0.29 0.30 0.27 0.26 0.25 0.24
0.03 0.03 0.04 0.04 0.06 0.09 0.11 0.12 0.13 0.14 0.14 0.14 0.13 0.13 0.13 0.14 0.16 0.19 0.22 0.26 0.33 0.36 0.38 0.42 0.42 0.42 0.43 0.42 0.42 0.38 0.34 0.35 0.38 0.24 0.12 0.12 0.20 0.28 0.33 0.33 0.27 0.24 0.22
0.04 0.05 0.06 0.09 0.12 0.16 0.19 0.20 0.20 0.20 0.19 0.19 0.19 0.19 0.20 0.23 0.27 0.28 0.26 0.28 0.31 0.34 0.36 0.40 0.45 0.49 0.52 0.51 0.50 0.46 0.41 0.34 0.32 0.29 0.18 0.14 0.18 0.25 0.31 0.34 0.33 0.30 0.26
0.09 0.11 0.14 0.18 0.22 0.25 0.26 0.25 0.23 0.23 0.24 0.24 0.24 0.26 0.29 0.37 0.51 0.54 0.42 0.38 0.36 0.36 0.35 0.38 0.43 0.50 0.57 0.62 0.64 0.55 0.45 0.41 0.36 0.31 0.23 0.20 0.20 0.24 0.33 0.37 0.38 0.38 0.38
0.20 0.23 0.23 0.22 0.22 0.22 0.22 0.22 0.23 0.25 0.26 0.26 0.24 0.26 0.32 0.46 0.77 0.81 0.62 0.48 0.42 0.40 0.37 0.38 0.42 0.51 0.64 0.74 0.75 0.67 0.55 0.47 0.40 0.35 0.30 0.25 0.24 0.29 0.36 0.40 0.42 0.41 0.44
0.27 0.27 0.25 0.22 0.21 0.21 0.22 0.22 0.23 0.23 0.21 0.18 0.17 0.21 0.30 0.47 0.84 0.89 0.69 0.47 0.40 0.40 0.40 0.36 0.35 0.39 0.44 0.51 0.61 0.59 0.57 0.52 0.48 0.43 0.42 0.40 0.36 0.35 0.40 0.47 0.53 0.50 0.48
0.28 0.28 0.26 0.24 0.23 0.21 0.20 0.18 0.17 0.16 0.13 0.10 0.09 0.11 0.17 0.34 0.70 0.77 0.60 0.38 0.30 0.32 0.32 0.27 0.25 0.27 0.27 0.25 0.29 0.27 0.30 0.39 0.50 0.54 0.58 0.58 0.52 0.46 0.48 0.54 0.60 0.60 0.53
0.25 0.23 0.19 0.16 0.15 0.14 0.13 0.12 0.10 0.09 0.08 0.06 0.04 0.04 0.06 0.14 0.47 0.68 0.50 0.24 0.22 0.24 0.24 0.25 0.25 0.24 0.23 0.19 0.17 0.18 0.21 0.27 0.41 0.51 0.62 0.66 0.64 0.60 0.58 0.64 0.72 0.75 0.69
0.15 0.12 0.09 0.07 0.07 0.08 0.08 0.07 0.05 0.04 0.03 0.02 0.02 0.01 0.02 0.06 0.27 0.61 0.53 0.18 0.16 0.18 0.22 0.31 0.32 0.27 0.24 0.14 0.11 0.16 0.19 0.22 0.28 0.40 0.50 0.52 0.54 0.62 0.67 0.67 0.72 0.82 0.93
0.07 0.05 0.03 0.02 0.03 0.03 0.03 0.02 0.01 0.01 0.01 0.01 0.00 0.01 0.01 0.02 0.15 0.49 0.65 0.24 0.16 0.15 0.18 0.29 0.46 0.37 0.24 0.10 0.08 0.11 0.14 0.18 0.18 0.19 0.22 0.26 0.30 0.37 0.51 0.69 0.80 0.82 0.94
0.02 0.01 0.00 0.00 0.00 0.01 0.01 0.01 0.01 0.01 0.01 0.01 0.01 0.01 0.01 0.01 0.05 0.29 0.65 0.48 0.25 0.14 0.17 0.29 0.45 0.35 0.19 0.10 0.07 0.08 0.13 0.11 0.11 0.12 0.14 0.17 0.21 0.30 0.42 0.58 0.73 0.80 0.85
0.00 0.00 0.00 0.00 0.00 0.00 0.00 0.00 0.01 0.01 0.01 0.01 0.01 0.01 0.01 0.01 0.04 0.18 0.40 0.48 0.34 0.14 0.18 0.23 0.30 0.22 0.14 0.07 0.04 0.05 0.04 0.03 0.04 0.06 0.07 0.10 0.15 0.24 0.36 0.48 0.60 0.69 0.79
0.00 0.00 0.00 0.00 0.00 0.00 0.00 0.01 0.01 0.01 0.03 0.05 0.05 0.04 0.02 0.02 0.04 0.15 0.20 0.19 0.20 0.14 0.23 0.35 0.24 0.13 0.07 0.04 0.02 0.01 0.01 0.01 0.02 0.03 0.04 0.06 0.10 0.16 0.23 0.32 0.42 0.53 0.60
0.00 0.00 0.00 0.00 0.00 0.00 0.00 0.01 0.01 0.03 0.12 0.18 0.14 0.09 0.05 0.04 0.13 0.28 0.25 0.12 0.10 0.10 0.11 0.19 0.15 0.06 0.01 0.01 0.00 0.00 0.01 0.01 0.02 0.03 0.04 0.04 0.05 0.08 0.13 0.22 0.32 0.42 0.50
0.00 0.00 0.00 0.00 0.00 0.00 0.00 0.01 0.02 0.04 0.18 0.31 0.25 0.22 0.18 0.20 0.34 0.49 0.39 0.27 0.25 0.20 0.12 0.08 0.05 0.03 0.02 0.01 0.00 0.00 0.00 0.01 0.01 0.02 0.03 0.04 0.05 0.07 0.10 0.16 0.27 0.35 0.46
0.01 0.00 0.01 0.01 0.01 0.01 0.01 0.01 0.01 0.03 0.08 0.10 0.14 0.21 0.20 0.30 0.39 0.32 0.26 0.22 0.21 0.18 0.10 0.06 0.05 0.03 0.02 0.02 0.01 0.01 0.00 0.01 0.01 0.02 0.03 0.04 0.06 0.08 0.10 0.13 0.21 0.31 0.40
0.01 0.01 0.02 0.01 0.01 0.01 0.02 0.02 0.02 0.01 0.02 0.02 0.04 0.10 0.16 0.24 0.25 0.22 0.20 0.13 0.10 0.07 0.04 0.03 0.03 0.02 0.02 0.02 0.01 0.01 0.01 0.01 0.01 0.02 0.04 0.05 0.06 0.09 0.10 0.13 0.18 0.27 0.37
0.01 0.01 0.02 0.02 0.02 0.03 0.03 0.04 0.04 0.04 0.02 0.01 0.01 0.03 0.08 0.12 0.14 0.14 0.14 0.07 0.04 0.03 0.03 0.03 0.03 0.02 0.02 0.02 0.01 0.01 0.01 0.01 0.01 0.02 0.03 0.04 0.06 0.09 0.11 0.13 0.17 0.27 0.36
0.00 0.01 0.03 0.03 0.03 0.03 0.04 0.04 0.03 0.03 0.03 0.02 0.01 0.01 0.02 0.03 0.03 0.04 0.05 0.04 0.04 0.03 0.03 0.03 0.03 0.03 0.03 0.02 0.01 0.01 0.01 0.01 0.01 0.02 0.03 0.03 0.05 0.08 0.11 0.12 0.16 0.24 0.35
0.00 0.02 0.03 0.03 0.03 0.03 0.03 0.04 0.04 0.04 0.04 0.03 0.03 0.04 0.08 0.07 0.03 0.02 0.02 0.03 0.04 0.04 0.05 0.05 0.04 0.03 0.04 0.03 0.02 0.02 0.01 0.01 0.01 0.02 0.03 0.03 0.04 0.07 0.10 0.12 0.16 0.23 0.31
0.01 0.01 0.02 0.02 0.02 0.03 0.04 0.05 0.05 0.05 0.05 0.04 0.03 0.05 0.20 0.19 0.08 0.04 0.04 0.05 0.08 0.09 0.08 0.07 0.06 0.05 0.05 0.04 0.03 0.02 0.02 0.02 0.01 0.02 0.03 0.03 0.05 0.08 0.10 0.13 0.16 0.21 0.27
0.02 0.03 0.03 0.03 0.03 0.03 0.05 0.05 0.04 0.05 0.05 0.04 0.03 0.02 0.06 0.06 0.05 0.05 0.05 0.07 0.09 0.11 0.11 0.11 0.09 0.07 0.07 0.06 0.04 0.03 0.02 0.02 0.02 0.02 0.03 0.04 0.06 0.09 0.11 0.14 0.17 0.23 0.28
0.05 0.04 0.03 0.02 0.02 0.02 0.02 0.02 0.03 0.04 0.05 0.04 0.04 0.04 0.04 0.05 0.06 0.07 0.08 0.09 0.11 0.12 0.12 0.13 0.12 0.09 0.08 0.07 0.05 0.04 0.04 0.04 0.04 0.05 0.07 0.07 0.08 0.10 0.13 0.16 0.19 0.23 0.28
0.04 0.02 0.01 0.01 0.02 0.02 0.02 0.03 0.04 0.05 0.06 0.06 0.06 0.06 0.06 0.06 0.07 0.07 0.08 0.09 0.12 0.13 0.14 0.16 0.14 0.12 0.10 0.08 0.06 0.04 0.04 0.07 0.11 0.12 0.12 0.13 0.13 0.13 0.15 0.18 0.20 0.23 0.28
0.01 0.01 0.01 0.02 0.03 0.04 0.04 0.04 0.05 0.06 0.07 0.07 0.08 0.08 0.07 0.07 0.07 0.07 0.08 0.11 0.13 0.14 0.14 0.15 0.16 0.14 0.12 0.09 0.07 0.06 0.07 0.12 0.16 0.22 0.27 0.28 0.23 0.19 0.20 0.22 0.23 0.25 0.28
0.01 0.01 0.02 0.03 0.04 0.06 0.08 0.08 0.08 0.09 0.11 0.11 0.11 0.11 0.11 0.11 0.11 0.11 0.13 0.18 0.21 0.19 0.17 0.16 0.16 0.15 0.13 0.10 0.08 0.07 0.12 0.22 0.32 0.42 0.49 0.50 0.39 0.28 0.24 0.25 0.25 0.26 0.29